Flag for U.S.A. Weather past 2 weeks in Reston, Virginia, U.S.A.

Now
10 °F

Clear.


Feels Like: 10 °F
Forecast: 13 / 45 °F
Wind: No wind

Location: Washington-Dulles International Airport

Current Time: Mar 7, 2015 at 12:05:30 AM

Latest Report: Mar 6, 2015 at 10:52 PM


Visibility: 10 mi

Pressure: 30.43 "Hg

Humidity: 80%

Dew point: 5 °F

Location of RestonLocation

Historic Weather in Reston — Graph

°F

Reston temperature yesterday

Maximum temperature yesterday: 24 °F (at 1:52 PM)
Minimum temperature yesterday: 8 °F (at 9:52 PM)
Average temperature yesterday: 16 °F

Past Weeks' High & Low Weather Summary

 TemperatureHumidityPressure
High46 °F (Feb 22, 2:52 PM)100% (Mar 4, 8:52 PM)30.88 "Hg (Mar 4, 8:52 PM)
Low-2 °F (Feb 24, 5:52 AM)24% (Feb 28, 2:52 PM)29.80 "Hg (Feb 25, 2:52 AM)
Average26 °F64%30.27 "Hg
* Reported Feb 19 10:52 PM — Mar 6 10:52 PM, Reston, Weather by CustomWeather, © 2015

Note: Actual official high and low records may vary slightly from our data, if they occured in-between our weather recording intervals... More about our weather records

Advertising

Reston weather history for previous 24 hours

 ConditionsComfort  
Time TempWeatherWind HumidityBarometerVisibility
10:52 PM
Fri, Mar 6
10 °FClear.No wind80%30.43 "Hg10 mi
9:52 PM8 °FClear.No wind83%30.44 "Hg10 mi
8:52 PM11 °FClear.No wind81%30.45 "Hg10 mi
7:52 PM14 °FPassing clouds.No wind77%30.45 "Hg10 mi
6:52 PM19 °FPassing clouds.No wind62%30.45 "Hg10 mi
5:52 PM23 °FScattered clouds.No wind46%30.46 "Hg10 mi
4:52 PM24 °FPassing clouds.No wind40%30.47 "Hg10 mi
3:52 PM23 °FPassing clouds.No wind42%30.49 "Hg10 mi
2:52 PM24 °FSunny.5 mph42%30.50 "Hg10 mi
1:52 PM24 °FSunny.5 mph42%30.52 "Hg10 mi
12:52 PM21 °FSunny.3 mph45%30.56 "Hg10 mi
11:52 AM20 °FSunny.5 mph48%30.58 "Hg10 mi
10:52 AM17 °FSunny.7 mph51%30.60 "Hg10 mi
9:52 AM15 °FSunny.10 mph53%30.63 "Hg10 mi
8:52 AM13 °FSunny.12 mph56%30.63 "Hg10 mi
7:52 AM11 °FSunny.5 mph61%30.61 "Hg10 mi
6:52 AM10 °FSunny.7 mph61%30.58 "Hg10 mi
5:52 AM11 °FClear.6 mph59%30.58 "Hg10 mi
4:52 AM12 °FClear.9 mph58%30.54 "Hg10 mi
3:52 AM13 °FClear.9 mph59%30.51 "Hg10 mi
2:52 AM15 °FClear.12 mph53%30.50 "Hg10 mi
1:52 AM16 °FClear.13 mph51%30.49 "Hg10 mi
12:52 AM17 °FClear.13 mph54%30.47 "Hg10 mi
Weather by CustomWeather, © 2015

See weather overviewHow to use our weather pages